Regional Weather Roundup
Issued by NWS

Home | Current Version | Previous Version | Text Only | Print | Product List | Glossary On
Versions: 1 2 3 4 5 6 7 8 9 10 11 12 13 14 15 16 17 18 19 20 21 22 23 24 25 26 27 28 29 30 31 32 33 34 35 36 37 38 39 40 41 42 43 44 45 46 47 48 49 50
000
ASUS43 KLMK 220410
RWRKY
KENTUCKY REGIONAL WEATHER ROUNDUP
NATIONAL WEATHER SERVICE LOUISVILLE KY
1200 AM EDT SUN OCT 22 2017

NOTE "FAIR" INDICATES FEW OR NO CLOUDS BELOW 12,000 FEET
WITH NO SIGNIFICANT WEATHER AND/OR OBSTRUCTIONS TO VISIBILITY.

KYZ001>023-026-027-061>063-070>075-220500-
WESTERN AND SOUTH CENTRAL KENTUCKY

CITY           SKY/WX    TMP DP  RH WIND       PRES   REMARKS
PADUCAH        CLEAR     70  59  68 S12       30.06F
HENDERSON      CLEAR     66  57  72 S12       30.11F
OWENSBORO      CLEAR     64  54  69 SE8       30.13F
HOPKINSVILLE   CLEAR     65  58  78 SE3       30.14S
BOWLING GREEN  CLEAR     63  53  70 SE5       30.18F
GLASGOW        MOCLDY    63  50  62 SE6       30.19F
$$

KYZ024-025-028>034-038-045-046-053-220500-
NORTH CENTRAL KENTUCKY

CITY           SKY/WX    TMP DP  RH WIND       PRES   REMARKS
LOUISVILLE/SDF PTCLDY    61  50  67 SE10      30.17F
LOUISVILLE/LOU PTCLDY    62  51  67 SE7       30.18F
FORT KNOX      NOT AVBL
$$

KYZ035>037-039>044-047>052-055>060-089>105-220500-
NORTHEAST KENTUCKY

CITY           SKY/WX    TMP DP  RH WIND       PRES   REMARKS
LEXINGTON      MOCLDY    61  49  64 SE7       30.22S
COVINGTON      PTCLDY    58  48  69 S5        30.19F
FRANKFORT      PTCLDY    59  48  67 SE6       30.20S
$$

KYZ054-064>069-076>088-106>120-220500-
SOUTHEAST KENTUCKY

CITY           SKY/WX    TMP DP  RH WIND       PRES   REMARKS
JACKSON        CLEAR     64  47  53 SE5       30.24F
LONDON         CLEAR     51  49  92 CALM      30.25S
SOMERSET       MOCLDY    50  50 100 CALM      30.25F
MIDDLESBORO    PTCLDY    52  51  97 CALM      30.29S
MONTICELLO     PTCLDY    47  45  93 VRB6      30.26S
$$





USA.gov is the U.S. government's official web portal to all federal, state and local government web resources and services.